Beatrice, NE

6:25 PM CDT on August 28, 2016 (GMT -0500)
Beatrice Municipal

Weather History for KBIE - April, 2014

Change the Weather History Date:

Saturday, April 19, 2014

  Actual Average Record
Temperature  
Mean Temperature 65 °F -  
Max Temperature 79 °F 66 °F 86 °F (1955)
Min Temperature 51 °F 44 °F 22 °F (1953)
Growing Degree Days 15 (Base 50)    
Moisture  
Dew Point 43 °F    
Average Humidity 45    
Maximum Humidity 64    
Minimum Humidity 31    
Precipitation  
Precipitation 0.00 in - - ()
Sea Level Pressure  
Sea Level Pressure 30.02 in    
Wind  
Wind Speed 15 mph (South)    
Max Wind Speed 25 mph    
Max Gust Speed 39 mph    
Visibility 10 miles    
Events      
Averages and records for this station are not official NWS values.
T = Trace of Precipitation, MM = Missing Value Source: NWS Daily Summary

Daily Weather History Graph

Daily Weather History Graph

Search for Another Location

Airport or City:

Trip Planner

Search our weather history database for the weather conditions in past years. The results will help you decide how hot, cold, wet, or windy it might be!

Date:

Astronomy

Apr. 19, 2014 Rise Set
Actual Time 6:42 AM CDT 8:10 PM CDT
Civil Twilight 6:14 AM CDT 8:38 PM CDT
Nautical Twilight 5:40 AM CDT 9:12 PM CDT
Astronomical Twilight 5:04 AM CDT 9:49 PM CDT
Moon No Moon Rise 10:02 AM CDT (4/19)
Length of Visible Light 14h 24m
Length of Day
13h 27m
Waning Gibbous, 78% of the Moon is Illuminated
Apr 19
Waning Gibbous
Apr 22
Last Quarter
Apr 29
New
May 6
First Quarter
May 14
Full

Hourly Weather History & Observations

Time (CDT) Temp. Dew Point Humidity Pressure Visibility Wind Dir Wind Speed Gust Speed Precip Events Conditions
12:15 AM 55.9 °F 39.4 °F 54% 30.10 in 7.0 mi SSE 10.4 mph - N/A   Clear
12:35 AM 55.4 °F 39.4 °F 55% 30.09 in 7.0 mi SSE 10.4 mph - N/A   Clear
12:55 AM 54.9 °F 39.2 °F 56% 30.08 in 7.0 mi SSE 10.4 mph - N/A   Clear
1:15 AM 54.7 °F 38.8 °F 55% 30.08 in 7.0 mi SSE 12.7 mph 18.4 mph N/A   Clear
1:35 AM 54.3 °F 38.8 °F 56% 30.08 in 7.0 mi SSE 12.7 mph 17.3 mph N/A   Clear
1:55 AM 54.0 °F 38.8 °F 57% 30.07 in 10.0 mi SSE 13.8 mph 20.7 mph N/A   Clear
2:15 AM 53.8 °F 38.8 °F 57% 30.07 in 10.0 mi SSE 12.7 mph - N/A   Clear
2:35 AM 53.2 °F 39.2 °F 59% 30.07 in 10.0 mi SSE 11.5 mph 17.3 mph N/A   Clear
2:55 AM 53.6 °F 39.2 °F 58% 30.06 in 10.0 mi SSE 13.8 mph - N/A   Clear
3:15 AM 53.1 °F 39.2 °F 59% 30.05 in 10.0 mi SSE 13.8 mph 17.3 mph N/A   Clear
3:35 AM 53.6 °F 39.2 °F 58% 30.05 in 10.0 mi SSE 13.8 mph 19.6 mph N/A   Clear
3:55 AM 53.4 °F 39.4 °F 59% 30.04 in 10.0 mi SSE 13.8 mph - N/A   Clear
4:15 AM 53.1 °F 39.4 °F 60% 30.04 in 10.0 mi SSE 12.7 mph 19.6 mph N/A   Clear
4:35 AM 53.1 °F 39.4 °F 60% 30.04 in 10.0 mi SSE 15.0 mph - N/A   Clear
4:55 AM 52.9 °F 39.6 °F 61% 30.04 in 10.0 mi SSE 12.7 mph - N/A   Clear
5:15 AM 52.2 °F 39.6 °F 62% 30.05 in 10.0 mi South 11.5 mph - N/A   Clear
5:30 AM 52.2 °F 39.6 °F 62% 30.04 in 10.0 mi South 13.8 mph - N/A   Clear
5:55 AM 52.5 °F 39.6 °F 61% 30.04 in 10.0 mi SSE 12.7 mph - N/A   Clear
6:15 AM 52.2 °F 39.7 °F 63% 30.04 in 10.0 mi SSE 12.7 mph - N/A   Clear
6:35 AM 52.0 °F 39.7 °F 63% 30.05 in 10.0 mi SSE 11.5 mph 18.4 mph N/A   Clear
6:55 AM 51.8 °F 39.9 °F 64% 30.05 in 10.0 mi SSE 11.5 mph 17.3 mph N/A   Clear
7:15 AM 52.3 °F 40.1 °F 63% 30.05 in 10.0 mi SSE 13.8 mph 17.3 mph N/A   Clear
7:35 AM 52.5 °F 40.5 °F 64% 30.04 in 10.0 mi SSE 12.7 mph - N/A   Clear
7:55 AM 54.0 °F 40.5 °F 60% 30.03 in 10.0 mi South 13.8 mph 17.3 mph N/A   Clear
8:15 AM 56.1 °F 41.0 °F 57% 30.03 in 10.0 mi South 15.0 mph 21.9 mph N/A   Clear
8:35 AM 58.1 °F 41.4 °F 54% 30.04 in 10.0 mi South 16.1 mph - N/A   Clear
8:55 AM 59.7 °F 42.6 °F 53% 30.04 in 10.0 mi South 13.8 mph 18.4 mph N/A   Clear
9:15 AM 62.1 °F 43.7 °F 51% 30.04 in 10.0 mi South 13.8 mph - N/A   Clear
9:35 AM 64.0 °F 45.0 °F 50% 30.04 in 10.0 mi South 15.0 mph 20.7 mph N/A   Clear
9:55 AM 67.1 °F 46.4 °F 47% 30.04 in 10.0 mi South 19.6 mph 28.8 mph N/A   Clear
10:15 AM 68.2 °F 46.4 °F 46% 30.04 in 10.0 mi SSW 24.2 mph 31.1 mph N/A   Clear
10:35 AM 68.9 °F 46.2 °F 44% 30.05 in 10.0 mi South 25.3 mph 29.9 mph N/A   Clear
10:55 AM 70.2 °F 46.0 °F 42% 30.06 in 10.0 mi SSW 24.2 mph 33.4 mph N/A   Scattered Clouds
11:15 AM 71.1 °F 46.4 °F 41% 30.06 in 10.0 mi SSW 20.7 mph 28.8 mph N/A   Mostly Cloudy
11:35 AM 71.2 °F 46.4 °F 41% 30.05 in 10.0 mi South 19.6 mph 28.8 mph N/A   Overcast
11:55 AM 72.9 °F 46.2 °F 39% 30.04 in 10.0 mi South 19.6 mph 27.6 mph N/A   Mostly Cloudy
12:15 PM 73.8 °F 46.2 °F 37% 30.03 in 10.0 mi South 21.9 mph 31.1 mph N/A   Scattered Clouds
12:35 PM 73.4 °F 45.5 °F 37% 30.01 in 10.0 mi South 20.7 mph 28.8 mph N/A   Clear
12:55 PM 74.8 °F 46.6 °F 37% 30.00 in 10.0 mi South 19.6 mph 26.5 mph N/A   Clear
1:15 PM 75.4 °F 46.4 °F 36% 30.00 in 10.0 mi South 24.2 mph 29.9 mph N/A   Clear
1:35 PM 76.1 °F 46.6 °F 35% 30.00 in 10.0 mi South 18.4 mph 27.6 mph N/A   Clear
1:55 PM 77.7 °F 46.6 °F 33% 30.00 in 10.0 mi South 23.0 mph 29.9 mph N/A   Clear
2:15 PM 77.4 °F 46.0 °F 33% 29.99 in 10.0 mi South 21.9 mph 31.1 mph N/A   Clear
2:35 PM 78.6 °F 46.2 °F 32% 29.99 in 10.0 mi South 23.0 mph 28.8 mph N/A   Clear
2:55 PM 79.3 °F 46.6 °F 31% 29.99 in 10.0 mi South 20.7 mph 31.1 mph N/A   Clear
3:15 PM 79.3 °F 46.4 °F 31% 29.98 in 10.0 mi South 20.7 mph 39.1 mph N/A   Clear
3:35 PM 79.3 °F 46.6 °F 31% 29.97 in 10.0 mi SSW 21.9 mph 32.2 mph N/A   Clear
3:55 PM 79.7 °F 46.9 °F 32% 29.97 in 10.0 mi South 18.4 mph 28.8 mph N/A   Clear
4:15 PM 78.6 °F 46.8 °F 32% 29.97 in 10.0 mi SSW 17.3 mph 31.1 mph N/A   Clear
4:35 PM 78.1 °F 46.8 °F 33% 29.97 in 10.0 mi SSW 20.7 mph 27.6 mph N/A   Clear
4:55 PM 79.3 °F 47.5 °F 33% 29.96 in 10.0 mi SSW 19.6 mph 25.3 mph N/A   Clear
5:15 PM 78.8 °F 47.3 °F 33% 29.95 in 10.0 mi South 19.6 mph 26.5 mph N/A   Clear
5:35 PM 78.8 °F 47.5 °F 33% 29.95 in 10.0 mi South 17.3 mph - N/A   Scattered Clouds
5:55 PM 78.8 °F 47.3 °F 33% 29.95 in 10.0 mi South 18.4 mph 23.0 mph N/A   Clear
6:15 PM 79.5 °F 47.5 °F 32% 29.96 in 10.0 mi SSW 17.3 mph 26.5 mph N/A   Scattered Clouds
6:35 PM 77.9 °F 46.8 °F 33% 29.96 in 10.0 mi South 21.9 mph 31.1 mph N/A   Scattered Clouds
6:55 PM 77.4 °F 46.0 °F 33% 29.96 in 10.0 mi South 17.3 mph - N/A   Mostly Cloudy
7:15 PM 76.8 °F 46.4 °F 34% 29.97 in 10.0 mi South 18.4 mph 25.3 mph N/A   Overcast
7:35 PM 76.1 °F 45.5 °F 34% 29.97 in 10.0 mi South 16.1 mph 21.9 mph N/A   Overcast
7:55 PM 75.6 °F 45.0 °F 34% 29.96 in 10.0 mi South 13.8 mph - N/A   Overcast
8:15 PM 75.2 °F 45.0 °F 34% 29.97 in 10.0 mi SSE 12.7 mph 19.6 mph N/A   Overcast
8:35 PM 74.3 °F 44.8 °F 35% 29.97 in 10.0 mi SSE 11.5 mph - N/A   Overcast
8:55 PM 73.2 °F 43.9 °F 35% 29.98 in 10.0 mi SSE 11.5 mph - N/A   Overcast
9:15 PM 71.2 °F 43.2 °F 36% 29.98 in 10.0 mi SE 11.5 mph - N/A   Scattered Clouds
9:35 PM 70.0 °F 43.7 °F 39% 29.99 in 10.0 mi SSE 11.5 mph 18.4 mph N/A   Clear
9:55 PM 69.3 °F 44.2 °F 40% 29.99 in 10.0 mi SE 11.5 mph 17.3 mph N/A   Clear
10:15 PM 68.9 °F 44.1 °F 41% 30.00 in 10.0 mi SSE 11.5 mph 17.3 mph N/A   Clear
10:35 PM 68.9 °F 44.1 °F 41% 30.00 in 10.0 mi SSE 15.0 mph 20.7 mph N/A   Clear
10:55 PM 68.4 °F 44.2 °F 42% 30.00 in 10.0 mi SSE 12.7 mph - N/A   Clear
11:15 PM 67.5 °F 44.6 °F 44% 30.00 in 10.0 mi SSE 16.1 mph 20.7 mph N/A   Clear
11:35 PM 67.3 °F 44.2 °F 43% 30.00 in 10.0 mi SSE 13.8 mph 19.6 mph N/A   Clear
11:55 PM 66.6 °F 44.2 °F 44% 30.00 in 10.0 mi SSE 12.7 mph - N/A   Clear